[[{"header":{"parameterUnit":"m.s-1","parameterCategory":1,"la1":30.2991,"la2":30.254,"lo1":-89.0895,"lo2":-89.0444,"dy":0.0017,"dx":0.0017,"nx":28,"ny":28,"refTime":"2024-06-16T03:00:00:Z","depth":0,"parameterNumber":2,"parameterNumberName":"U-component_of_WINDS"},"data":[0,0,0,0,0,0,0,0,0,0,0,0,0,0,0,0,0,0,0,0,0,0,0,0,0,0,0,0,0,0,0,0,0,0,0,0,0,0,0,0,0,0,0,0,0,0,0,0,0,0,0,0,0,0,0,0,0,0,-7.278,-7.2782,0,-7.2957,-7.2959,-7.2961,-7.2873,-7.2869,-7.2864,-7.286,-7.3029,-7.3037,-7.3046,0,0,0,0,0,0,0,0,0,0,0,0,0,-7.2352,-7.236,-7.278,-7.2782,-7.2784,-7.2957,-7.2959,-7.2962,-7.2874,-7.2869,-7.2863,-7.2858,-7.3026,-7.3036,-7.3047,0,0,0,0,0,0,0,0,0,0,0,0,0,-7.2534,-7.2363,-7.2779,-7.2762,-7.2762,-7.2956,-7.2959,-7.2962,-7.2875,-7.2868,-7.2862,-7.2855,-7.3022,-7.3035,-7.3048,-7.3266,0,0,-7.3088,-7.3094,0,0,0,0,0,0,0,0,-7.2524,-7.255,-7.2762,-7.2763,-7.2764,-7.2887,-7.287,-7.3064,-7.2877,-7.2832,-7.286,-7.2852,-7.2986,-7.3002,-7.305,-7.3274,-7.3281,-7.3089,-7.3097,-7.3103,-7.3107,0,0,0,0,0,0,0,-7.2511,-7.2542,-7.2849,-7.2765,-7.2766,-7.274,-7.2759,-7.2906,-7.2945,-7.2835,-7.2829,-7.2852,-7.2985,-7.3037,-7.3053,-7.3284,-7.3089,-7.3101,-7.3109,-7.3114,-7.3692,-7.3699,0,0,0,0,0,0,-7.2501,-7.2532,-7.2844,-7.2855,-7.2625,-7.2754,-7.2774,-7.2854,-7.2943,-7.295,-7.2858,-7.2848,-7.3018,-7.3038,-7.3058,-7.3317,-7.3103,-7.3115,-7.3123,-7.3685,-7.3694,-7.3702,0,0,0,0,0,0,-7.2493,-7.253,-7.2837,-7.2692,-7.2729,-7.2769,-7.2858,-7.2861,-7.2913,-7.296,-7.2965,-7.2905,-7.3013,-7.304,-7.3215,-7.3321,-7.3121,-7.3133,-7.3676,-7.3687,-7.3698,-7.3837,0,0,0,0,0,0,-7.2481,-7.2528,-7.2614,-7.2695,-7.2737,-7.2995,-7.2865,-7.2869,-7.2937,-7.2925,-7.3006,-7.3012,-7.301,-7.3196,-7.3228,-7.3336,-7.3143,-7.3666,-7.3681,-7.3694,-7.3823,-7.3851,-7.3876,0,0,0,0,0,-7.2466,-7.2644,-7.2619,-7.2657,-7.2847,-7.3001,-7.3025,-7.3023,-7.2947,-7.3031,-7.3061,-7.301,-7.3306,-7.3215,-7.325,-7.3363,-7.3659,-7.3677,-7.3693,-7.3811,-7.3846,-7.3875,0,0,0,0,0,0,-7.257,-7.2654,-7.2627,-7.2838,-7.2914,-7.2986,-7.3093,-7.306,-7.3156,-7.314,-7.3129,-7.3148,-7.3329,-7.3364,-7.3261,-7.3577,-7.347,-7.3495,-7.3547,-7.3581,-7.3607,-7.3593,-7.3154,0,0,0,0,0,-7.2619,-7.2742,-7.2807,-7.2986,-7.3026,-7.3054,-7.3121,-7.3113,-7.3189,-7.3219,-7.3262,-7.3334,-7.3443,-7.3514,-7.3617,-7.3829,-7.3842,-7.3924,-7.395,-7.3972,-7.3992,-7.4102,-7.4138,-7.3757,-7.3757,-7.3757,0,0,-7.2718,-7.2779,-7.2856,-7.3008,-7.3066,-7.3189,-7.3081,-7.3216,-7.3305,-7.3238,-7.3406,-7.3441,-7.352,-7.3714,-7.3801,-7.3748,-7.4101,-7.3993,-7.401,-7.4018,-7.4123,-7.4159,-7.4191,-7.3768,-7.3766,-7.3765,0,0,-7.2961,-7.3022,-7.3177,-7.3238,-7.3328,-7.3345,-7.3383,-7.3461,-7.3482,-7.3653,-7.3604,-7.3708,-7.3897,-7.3955,-7.4009,-7.4275,-7.4229,-7.4308,-7.4445,-7.4553,-7.4583,-7.4609,-7.47,-7.4733,-7.4329,-7.433,-7.433,0,-7.3071,-7.3259,-7.3259,-7.3399,-7.3464,-7.3415,-7.3568,-7.3626,-7.3743,-7.3788,-7.3729,-7.3964,-7.4014,-7.4219,-7.4284,-7.4331,-7.4369,-7.4297,-7.458,-7.4606,-7.4631,-7.4717,-7.4751,-7.4338,-7.4337,-7.4336,-7.4336,0,-7.3388,-7.3519,-7.3632,-7.3752,-7.3831,-7.3977,-7.3994,-7.4074,-7.4059,-7.4081,-7.4253,-7.4312,-7.4425,-7.4473,-7.4459,-7.4676,-7.464,-7.4581,-7.4472,-7.4676,-7.4756,-7.479,-7.4351,-7.4348,-7.4345,-7.4343,0,0,-7.3699,-7.3819,-7.386,-7.3912,-7.4008,-7.4107,-7.4248,-7.4363,-7.4429,-7.4512,-7.4627,-7.4789,-7.4735,-7.4796,-7.4788,-7.4884,-7.5085,-7.4812,-7.4814,-7.4857,-7.5322,-7.5363,-7.5402,-7.5058,-7.5064,-7.5069,-7.5314,0,-7.3946,-7.4199,-7.4203,-7.4433,-7.4551,-7.4505,-7.4628,-7.4698,-7.4723,-7.4822,-7.4848,-7.4961,-7.4884,-7.492,-7.5013,-7.5041,-7.5178,-7.5024,-7.5159,-7.5164,-7.5137,-7.5445,-7.5489,-7.5717,-7.5346,-7.5352,-7.5356,0,-7.4267,-7.4364,-7.4608,-7.4686,-7.4735,-7.4846,-7.495,-7.5048,-7.5125,-7.5136,-7.5206,-7.5183,-7.5322,-7.5213,-7.5402,-7.5297,-7.5353,-7.5375,-7.5384,-7.5393,-7.5269,-7.5457,-7.5791,-7.5823,-7.5406,-7.5402,-7.5398,0,-7.4464,-7.4656,-7.4826,-7.4872,-7.4969,-7.5047,-7.509,-7.516,-7.5228,-7.5318,-7.5361,-7.5465,-7.5521,-7.5599,-7.5603,-7.5524,-7.5793,-7.5685,-7.5801,-7.5801,-7.5856,-7.5852,-7.6199,-7.59,-7.5899,-7.5899,-7.5898,0,-7.4737,-7.4886,-7.4915,-7.5019,-7.5184,-7.5186,-7.5347,-7.5382,-7.5446,-7.5551,-7.5518,-7.5617,-7.5619,-7.5719,-7.5723,-7.5877,-7.5903,-7.5912,-7.591,-7.5913,-7.5911,-7.5946,-7.5928,-7.5908,-7.5906,-7.5904,-7.5902,0,-7.4984,-7.501,-7.5191,-7.5269,-7.5291,-7.5409,-7.5472,-7.5569,-7.5591,-7.5726,-7.5757,-7.5791,-7.5907,-7.5921,-7.6055,-7.6057,-7.6242,-7.6225,-7.6217,-7.6213,-7.6327,-7.6315,-7.6705,-7.6754,-7.6427,-7.643,-7.6433,0,-7.5154,-7.5268,-7.5359,-7.543,-7.5478,-7.5593,-7.5663,-7.5669,-7.5742,-7.5838,-7.5922,-7.6036,-7.6127,-7.6314,-7.6347,-7.6449,-7.6432,-7.6562,-7.6446,-7.6445,-7.6429,-7.642,-7.643,-7.6582,-7.6586,-7.6589,-7.6591,0,-7.5452,-7.546,-7.5564,-7.5674,-7.576,-7.5845,-7.5925,-7.5984,-7.5999,-7.6082,-7.6203,-7.6274,-7.6413,-7.6525,-7.6625,-7.6664,-7.6629,-7.6628,-7.666,-7.6661,-7.665,-7.6653,-7.6273,-7.6618,-7.6615,-7.6613,-7.6612,-7.6611,-7.5663,-7.5761,-7.5841,-7.5957,-7.6019,-7.6095,-7.6189,-7.6225,-7.6327,-7.6443,-7.644,-7.6571,-7.6642,-7.6774,-7.6821,-7.6921,-7.6877,-7.6924,-7.6935,-7.6945,-7.6955,-7.6639,-7.6939,-7.6939,-7.6938,-7.6937,-7.6937,0,-7.5955,-7.6005,-7.6113,-7.6228,-7.6319,-7.6284,-7.637,-7.6447,-7.6565,-7.6637,-7.6728,-7.6865,-7.6973,-7.7017,-7.7121,-7.7193,-7.7179,-7.7219,-7.7212,-7.722,-7.699,-7.695,-7.7229,-7.7229,-7.7229,-7.7229,-7.7228,-7.7228,-7.6118,-7.6282,-7.6299,-7.6491,-7.6538,-7.6671,-7.6722,-7.679,-7.6847,-7.7003,-7.7095,-7.7124,-7.7183,-7.7291,-7.7388,-7.7397,-7.7435,-7.7482,-7.7484,-7.7267,-7.7237,-7.7209,-7.7171,-7.7491,-7.7492,-7.7705,-7.7707,-7.7709]},{"header":{"parameterUnit":"m.s-1","parameterCategory":1,"la1":30.2991,"la2":30.254,"lo1":-89.0895,"lo2":-89.0444,"dy":0.0017,"dx":0.0017,"nx":28,"ny":28,"refTime":"2024-06-16T03:00:00:Z","depth":0,"parameterNumber":3,"parameterNumberName":"V-component_of_WINDS"},"data":[0,0,0,0,0,0,0,0,0,0,0,0,0,0,0,0,0,0,0,0,0,0,0,0,0,0,0,0,0,0,0,0,0,0,0,0,0,0,0,0,0,0,0,0,0,0,0,0,0,0,0,0,0,0,0,0,0,0,1.1147,1.1149,0,1.129,1.1291,1.1293,1.1338,1.1337,1.1336,1.1336,1.1479,1.1484,1.1488,0,0,0,0,0,0,0,0,0,0,0,0,0,1.0914,1.0918,1.1147,1.1149,1.1151,1.1289,1.1291,1.1293,1.1338,1.1337,1.1336,1.1335,1.1478,1.1483,1.1489,0,0,0,0,0,0,0,0,0,0,0,0,0,1.1031,1.0919,1.1147,1.119,1.1195,1.1289,1.1291,1.1294,1.1338,1.1337,1.1336,1.1335,1.1476,1.1483,1.1489,1.155,0,0,1.151,1.1513,0,0,0,0,0,0,0,0,1.1025,1.104,1.1182,1.1187,1.1193,1.1295,1.1262,1.138,1.1338,1.1284,1.1336,1.1334,1.1419,1.143,1.1459,1.1557,1.1563,1.151,1.1514,1.1517,1.1519,0,0,0,0,0,0,0,1.1016,1.1034,1.1203,1.1184,1.1191,1.1202,1.1217,1.1284,1.1355,1.1288,1.1292,1.1308,1.1422,1.1452,1.1463,1.1565,1.151,1.1516,1.152,1.1523,1.1723,1.1724,0,0,0,0,0,0,1.1001,1.1027,1.1199,1.1208,1.1105,1.1207,1.1224,1.1263,1.1354,1.1367,1.1309,1.131,1.1441,1.1455,1.1468,1.1547,1.1517,1.1523,1.1527,1.1722,1.1723,1.1725,0,0,0,0,0,0,1.0996,1.1016,1.1193,1.1118,1.1142,1.1212,1.1255,1.1266,1.1297,1.137,1.1383,1.1327,1.1441,1.1458,1.153,1.1552,1.1526,1.1532,1.172,1.1722,1.1724,1.1704,0,0,0,0,0,0,1.0989,1.1014,1.1038,1.1119,1.1146,1.1253,1.1257,1.127,1.1309,1.1311,1.1391,1.1403,1.1442,1.152,1.1537,1.1561,1.1538,1.1719,1.1721,1.1724,1.1703,1.1705,1.1707,0,0,0,0,0,1.098,1.1025,1.1039,1.1059,1.1177,1.1254,1.127,1.1314,1.131,1.1335,1.1382,1.14,1.1547,1.1527,1.1546,1.1573,1.1717,1.172,1.1723,1.1702,1.1704,1.1707,0,0,0,0,0,0,1.0944,1.1037,1.1052,1.1125,1.1182,1.1262,1.1294,1.1315,1.1373,1.1373,1.1425,1.1443,1.1511,1.1549,1.1525,1.1638,1.1633,1.164,1.161,1.1613,1.1615,1.1604,1.1543,0,0,0,0,0,1.0945,1.1,1.1078,1.1134,1.1162,1.1223,1.1258,1.1288,1.1349,1.1372,1.1425,1.1482,1.1542,1.158,1.1638,1.1709,1.1727,1.1737,1.1738,1.174,1.1745,1.1787,1.1792,1.1735,1.1735,1.1735,0,0,1.0946,1.1004,1.1035,1.1129,1.1176,1.1232,1.1243,1.1302,1.1344,1.1381,1.1453,1.1493,1.1561,1.1633,1.1667,1.1667,1.1765,1.1744,1.1744,1.1749,1.179,1.1796,1.18,1.1737,1.1736,1.1736,0,0,1.0977,1.1026,1.108,1.1127,1.1199,1.124,1.1253,1.1331,1.1359,1.1432,1.1462,1.1513,1.1614,1.1661,1.1699,1.1751,1.177,1.1768,1.1778,1.1818,1.1822,1.1827,1.1846,1.1852,1.1773,1.1773,1.1773,0,1.097,1.1056,1.1104,1.1162,1.1203,1.124,1.1295,1.1339,1.1426,1.1453,1.1452,1.1581,1.1629,1.1713,1.1726,1.1755,1.1771,1.1759,1.1818,1.1823,1.1827,1.1846,1.1853,1.1773,1.1773,1.1773,1.1773,0,1.1044,1.1103,1.1138,1.1222,1.1267,1.1323,1.1379,1.1419,1.1445,1.1486,1.156,1.162,1.1692,1.1714,1.1739,1.1803,1.18,1.1808,1.1804,1.1831,1.185,1.1858,1.1772,1.1772,1.1772,1.1772,0,0,1.1055,1.1167,1.1179,1.1218,1.1302,1.1349,1.1407,1.1478,1.1511,1.1571,1.1621,1.1706,1.1715,1.1757,1.1789,1.1824,1.1862,1.1827,1.183,1.1832,1.1937,1.193,1.1938,1.1876,1.1877,1.1879,1.1931,0,1.1097,1.1203,1.1249,1.1334,1.139,1.1428,1.1479,1.1535,1.1575,1.1629,1.1673,1.1734,1.1739,1.1765,1.1802,1.185,1.1884,1.1847,1.1923,1.1925,1.1905,1.1948,1.1941,1.1988,1.1939,1.194,1.1941,0,1.1161,1.1222,1.1312,1.1391,1.1416,1.1461,1.1531,1.1582,1.1647,1.1674,1.1723,1.1753,1.1816,1.1809,1.1896,1.187,1.1904,1.1933,1.1936,1.1944,1.1934,1.1958,1.2004,1.2011,1.1953,1.1952,1.1951,0,1.116,1.1265,1.1334,1.1366,1.1459,1.149,1.153,1.1595,1.1635,1.1697,1.1724,1.1791,1.1828,1.188,1.1927,1.1918,1.2011,1.2007,1.2035,1.2034,1.2053,1.2051,1.2105,1.2074,1.2074,1.2074,1.2074,0,1.1203,1.1257,1.1335,1.1377,1.144,1.1492,1.1552,1.1595,1.1652,1.1703,1.174,1.1787,1.1848,1.1903,1.194,1.2008,1.2024,1.2048,1.2057,1.2045,1.2042,1.2068,1.2066,1.2076,1.2076,1.2075,1.2075,0,1.1213,1.1267,1.1345,1.1427,1.1449,1.1491,1.1562,1.1604,1.1647,1.1711,1.173,1.1796,1.1863,1.1917,1.2003,1.2029,1.21,1.211,1.2078,1.2083,1.2108,1.2105,1.2181,1.2194,1.2154,1.2154,1.2154,0,1.1237,1.128,1.1367,1.1405,1.1445,1.1504,1.1546,1.16,1.1642,1.1722,1.1755,1.1824,1.1883,1.1988,1.2044,1.2111,1.2124,1.2146,1.2134,1.2121,1.2125,1.2122,1.2127,1.2147,1.2147,1.2147,1.2147,0,1.1273,1.1299,1.1358,1.1428,1.1478,1.1535,1.1593,1.1622,1.1686,1.1732,1.1801,1.1847,1.1937,1.2006,1.2079,1.212,1.2145,1.2151,1.2161,1.2148,1.2128,1.214,1.2082,1.2149,1.2148,1.2148,1.2148,1.2148,1.1292,1.1332,1.1401,1.1466,1.1516,1.157,1.1614,1.1663,1.1722,1.18,1.1828,1.19,1.1966,1.2067,1.2109,1.2166,1.2168,1.2182,1.2186,1.2189,1.2188,1.2119,1.218,1.218,1.218,1.218,1.218,0,1.1331,1.1377,1.1437,1.1518,1.157,1.159,1.1655,1.1697,1.176,1.182,1.1878,1.1958,1.2026,1.2088,1.2159,1.2193,1.2206,1.2209,1.2207,1.2217,1.2182,1.2166,1.2198,1.2198,1.2198,1.2198,1.2198,1.2198,1.1357,1.1427,1.1461,1.1556,1.1602,1.1673,1.1709,1.176,1.1808,1.1896,1.1953,1.1994,1.2055,1.2131,1.2194,1.2211,1.2235,1.2236,1.2255,1.2222,1.2219,1.2217,1.2202,1.2241,1.2241,1.2286,1.2286,1.2287]}]]